Miscellaneous Local Product
Issued by NWS Hastings, NE

Home | Current Version | Previous Version | Text Only | Print | Product List | Glossary Off
Versions: 1 2 3 4 5 6 7 8 9 10 11 12 13 14 15 16 17 18 19 20 21 22 23 24 25 26 27 28 29 30 31 32 33 34 35 36 37 38 39 40 41 42 43 44 45 46 47 48 49 50

000
AXUS43 KGID 191202
MISGRI

GID CWA HOURLY WEATHER ROUNDUP
NATIONAL WEATHER SERVICE HASTINGS NE
700 AM CDT SAT APR 19 2014

NOTE: "FAIR" INDICATES FEW OR NO CLOUDS BELOW 12,000 FEET WITH NO
SIGNIFICANT WEATHER AND/OR OBSTRUCTIONS TO VISIBILITY.

...SOUTH CENTRAL NEBRASKA...

CITY           SKY/WX    TMP DP  RH WIND       PRES   REMARKS
GRAND ISLAND   CLOUDY    53  42  66 S21G29    29.93F
HASTINGS       CLOUDY    53  43  68 S14       29.94S
KEARNEY        CLOUDY    52  45  76 S20G26    29.91S
ORD            PTCLDY    50  43  77 SE5       29.94R
YORK           MOCLDY    54  41  62 S18       29.97S
AURORA         CLOUDY    52  41  65 S18G24    29.95S
LEXINGTON      CLOUDY    50  46  84 CALM      29.93R
HOLDREGE       CLOUDY    52  46  77 S20       29.90F
HEBRON         MOCLDY    53  40  62 S13       30.02R

...NEBRASKA PANHANDLE...

CITY           SKY/WX    TMP DP  RH WIND       PRES   REMARKS
CHADRON        CLOUDY    43  36  76 W5        29.99R
ALLIANCE       CLOUDY    42  36  79 N9        29.98R
SCOTTSBLUFF    CLOUDY    47  38  71 VRB5      30.00R
SIDNEY         CLOUDY    52  35  52 N17       29.94R

...WESTERN AND NORTH CENTRAL NEBRASKA...

CITY           SKY/WX    TMP DP  RH WIND       PRES   REMARKS
VALENTINE      CLOUDY    47  36  65 CALM      29.96R
AINSWORTH      MOCLDY    50  40  67 N10       29.96R
ONEILL         MOCLDY    53  41  65 SW8       29.95R
BROKEN BOW     MOCLDY    49  44  83 S3        29.94R
IMPERIAL       CLOUDY    47  41  80 SE6       29.87R
NORTH PLATTE   CLOUDY    50  43  77 E6        29.92R
MCCOOK         CLOUDY    51  45  79 S8        29.89R

...EASTERN NEBRASKA...

CITY           SKY/WX    TMP DP  RH WIND       PRES   REMARKS
NORFOLK        MOCLDY    53  40  61 S13       29.98R
SO SIOUX CITY  PTCLDY    53  41  63 SE12      30.02R
TEKAMAH        PTCLDY    54  41  61 S14       30.02F
COLUMBUS       MOCLDY    52  37  58 S15       29.97S
ALBION         MOCLDY    52  40  65 S7        29.95R
OMAHA EPPLEY   MOCLDY    54  40  59 S17       30.06R
OFFUTT AFB     CLEAR     52  42  70 SE12      30.07R
MILLARD        PTCLDY    53  40  62 SE10      30.05S
LINCOLN        MOCLDY    54  40  59 S15       30.03S
NEBRASKA CITY  CLEAR     51  40  66 S14       30.08R
BEATRICE       MOCLDY    52  40  63 S12G18    30.05R
FALLS CITY     CLEAR     52  41  66 S10       30.10R

...NORTHERN KANSAS...

CITY           SKY/WX    TMP DP  RH WIND       PRES   REMARKS
GOODLAND       CLOUDY    49  43  80 S13       29.88R
HILL CITY      CLOUDY    56  46  69 S16G26    29.91S
PHILLIPSBURG   CLEAR     57  46  67 SE16G23   29.94S
SMITH CENTER   CLEAR     50  45  81 SE12      29.98R
BELOIT         CLEAR     54  43  66 SE16      30.00S
HAYS           CLOUDY    55  45  67 S14G23    29.98R
RUSSELL        MOCLDY    56  46  69 S23       29.97R
CONCORDIA      CLOUDY    53  42  66 S16       30.02R
SALINA         MOCLDY    53  41  63 S15       30.05S
TOPEKA         CLEAR     49  40  71 CALM      30.12S



USA.gov is the U.S. government's official web portal to all federal, state and local government web resources and services.